COSMOS 1174 DEB

Satellite information

Favourite Embed

Satellite Type and Status

DEBRISIN ORBIT

Key statistics

Satellite COSMOS 1174 DEB at a glance.

Uptime

16516

Days in orbit

Revolutions

≈ 14.9

Per day

Orbit

LEO

Low Earth Orbit

Inclination

66.1

Latest

Satellite identification and parameters

Extended collection of information and parameters for COSMOS 1174 DEB.

Object identification

Identified? True

Debris? True

Object name: COSMOS 1174 DEB

International designator: 1980-030Y

Object number (NORAD): 12354

Object ID (CCSDS): 12354

Country: COMMONWEALTH OF INDEPENDENT STATES (CIS)

Current information (Y/N): Y

RCS size: SMALL

Orbital parameters

Period: 96.787 minutes

Inclination: 66.1007 deg

SMA: 6982.944 km

Apoapsis: 821.398 km

Periapsis: 388.22 km

RAAN: 144.4828 deg

Eccentricy: 0.0310169

Argument of periapsis: 97.7625 deg

Mean anomaly: 265.8828 deg

Mean motion: 14.87801223 rev/day

Mean motion (dot): 0.00006725 rev/day2

B* drag term: 0.00030446 1/REarth

Two-line elements (TLE)

Creation date: July 6, 2025, 6:05 p.m.

Reference frame: TEME

Reference center: EARTH

Epoch: July 6, 2025, 7:32 a.m. UTC

TLE line 0: 0 COSMOS 1174 DEB

TLE line 1: 1 12354U 80030Y 25187.31413606 .00006725 00000-0 30446-3 0 9993

TLE line 2: 2 12354 66.1007 144.4828 0310169 97.7625 265.8828 14.87801223345449

Live tracking on map

Real-time ground track for satellite COSMOS 1174 DEB.

In-orbit conjunctions

A list of the most updated potential collisions computed for object COSMOS 1174 DEB.

Target Orbit TCA Probability of collision Miss distance Type
CZ-6A DEB SSO 2024-10-28 11:47:07 0.0001327065 179.0 (m) DEBRIS

Associated space launch

Second generation ASAT satellite

COSMOS 1174 DEB was lifted into orbit during the mission ‘Tsiklon-2 | IS-A 10’, on board a Tsiklon-2 space rocket.

The launch took place on April 18, 1980, 12:51 a.m. from 90.

For more information about the launch, click the button.

Launch to space Tsiklon-2 | IS-A 10
Tsiklon-2 | IS-A 10

Agency: N/A

Status: Launch Successful

Launch date: April 18, 1980, 12:51 a.m. UTC

Rocket: Tsiklon-2

Launch pad: 90

Location: Baikonur Cosmodrome, Republic of Kazakhstan

...

Latest news about this satellite

There are no fresh news available about this satellite. Check back as we update our databases every day.


Newsletter sign-up

Weekly statistics, charts and insights to help you stay on top of the space industry.